GW4697 Weather Reports


time (UTC)temp
C
wind
direction
speed
KPH
gust
KPH
rain 1hr
cm
rain 24hr
cm
rain mn
cm
humidity
%
barometer
mb
20260507170156 15 186 6.4 6.4 0.00 0.00 0.00 64 1022.3
20260507165651 15 157 12.9 14.5 0.00 0.00 0.00 68 1022.2
20260507165148 15 171 16.1 20.9 0.00 0.00 0.00 68 1022.5
20260507164644 15 155 11.3 11.3 0.00 0.00 0.00 69 1022.2
20260507164141 15 151 12.9 16.1 0.00 0.00 0.00 66 1022.3
20260507163638 15 189 6.4 6.4 0.00 0.00 0.00 67 1022.4
20260507163136 15 153 8.0 9.7 0.00 0.00 0.00 67 1022.5
20260507162632 15 184 9.7 12.9 0.00 0.00 0.00 66 1022.6
20260507162128 15 181 9.7 11.3 0.00 0.00 0.00 68 1022.9
20260507161624 15 199 19.3 24.1 0.00 0.00 0.00 69 1022.9
20260507161121 15 161 16.1 17.7 0.00 0.00 0.00 71 1022.8
20260507160617 14 157 9.7 11.3 0.00 0.00 0.00 71 1023.0
20260507160114 15 159 19.3 22.5 0.00 0.00 0.00 72 1023.0
20260507155609 15 192 11.3 12.9 0.00 0.00 0.00 69 1022.9
20260507155106 15 162 11.3 12.9 0.00 0.00 0.00 71 1023.2
20260507154603 14 166 12.9 14.5 0.00 0.00 0.00 73 1023.3
20260507154100 15 185 6.4 9.7 0.00 0.00 0.00 72 1023.0
20260507153557 15 171 8.0 9.7 0.00 0.00 0.00 74 1023.0
20260507153053 14 204 12.9 14.5 0.00 0.00 0.00 71 1023.1
20260507152549 14 160 11.3 12.9 0.00 0.00 0.00 70 1023.3
20260507152046 14 136 8.0 9.7 0.00 0.00 0.00 75 1023.0
20260507151542 13 141 6.4 6.4 0.00 0.00 0.00 76 1023.0
20260507151039 13 169 14.5 16.1 0.00 0.00 0.00 77 1023.0
20260507150536 13 147 9.7 11.3 0.00 0.00 0.00 77 1023.1
20260507150033 13 160 9.7 11.3 0.00 0.00 0.00 76 1023.0
20260507145527 13 166 9.7 11.3 0.00 0.00 0.00 79 1022.8
20260507145026 13 159 4.8 6.4 0.00 0.00 0.00 78 1022.7
20260507144522 13 155 4.8 6.4 0.00 0.00 0.00 78 1023.0
20260507144020 13 188 6.4 9.7 0.00 0.00 0.00 79 1023.2
20260507143517 13 202 8.0 9.7 0.00 0.00 0.00 79 1023.0
20260507143014 13 171 6.4 6.4 0.00 0.00 0.00 80 1023.1
20260507142509 12 183 9.7 9.7 0.00 0.00 0.00 80 1023.2
20260507142007 12 181 11.3 11.3 0.00 0.00 0.00 81 1023.0
20260507141502 12 149 8.0 11.3 0.00 0.00 0.00 84 1023.3
20260507140959 12 152 6.4 11.3 0.00 0.00 0.00 84 1023.2
20260507140456 12 157 6.4 9.7 0.00 0.00 0.00 82 1023.4
20260507135953 12 135 6.4 9.7 0.00 0.00 0.00 83 1023.5
20260507135450 12 127 9.7 12.9 0.00 0.00 0.00 83 1023.2
20260507134948 11 156 8.0 11.3 0.00 0.00 0.00 84 1023.4
20260507134444 11 174 9.7 12.9 0.00 0.00 0.00 84 1023.3
20260507133940 11 165 8.0 9.7 0.00 0.00 0.00 85 1023.5
20260507133436 11 189 9.7 11.3 0.00 0.00 0.00 86 1023.1
20260507132935 11 171 9.7 11.3 0.00 0.00 0.00 87 1022.9
20260507132430 11 189 9.7 11.3 0.00 0.00 0.00 87 1023.0
20260507131927 11 140 9.7 11.3 0.00 0.00 0.00 88 1023.4
20260507131424 11 133 1.6 1.6 0.00 0.00 0.00 89 1023.3
20260507130921 10 172 4.8 4.8 0.00 0.00 0.00 89 1023.3
20260507130418 10 103 0.0 0.0 0.00 0.00 0.00 90 1023.1
20260507125917 10 102 0.0 1.6 0.00 0.00 0.00 90 1023.2
20260507125415 10 91 3.2 3.2 0.00 0.00 0.00 89 1023.2
20260507124912 10 88 0.0 1.6 0.00 0.00 0.00 90 1023.1
20260507124407 10 104 0.0 1.6 0.00 0.00 0.00 90 1023.1
20260507123906 10 140 3.2 3.2 0.00 0.00 0.00 91 1023.1
20260507123403 10 99 0.0 0.0 0.00 0.00 0.00 92 1022.9
20260507122859 10 115 1.6 1.6 0.00 0.00 0.00 93 1023.0
20260507122355 9 135 1.6 3.2 0.00 0.00 0.00 94 1023.0
20260507121851 8 99 0.0 0.0 0.00 0.00 0.00 95 1022.6
20260507121346 8 115 1.6 1.6 0.00 0.00 0.00 96 1022.6
20260507120844 8 113 0.0 0.0 0.00 0.00 0.00 96 1022.4
20260507120340 7 114 0.0 0.0 0.00 0.00 0.00 97 1022.4
20260507115836 7 116 0.0 0.0 0.00 0.00 0.00 97 1022.5
20260507115332 7 128 0.0 1.6 0.00 0.00 0.00 97 1022.4
20260507114827 7 133 1.6 1.6 0.00 0.00 0.00 97 1022.2
20260507114325 7 111 0.0 1.6 0.00 0.00 0.00 97 1022.1
20260507113823 7 76 0.0 1.6 0.00 0.00 0.00 97 1022.1
20260507113319 6 97 0.0 0.0 0.00 0.00 0.00 97 1022.1
20260507112817 6 97 0.0 0.0 0.00 0.00 0.00 97 1022.2
20260507112314 6 97 0.0 0.0 0.00 0.00 0.00 97 1022.1
20260507111812 7 99 0.0 0.0 0.00 0.00 0.00 96 1021.9
20260507111308 7 99 0.0 0.0 0.00 0.00 0.00 96 1021.9
20260507110804 7 145 1.6 3.2 0.00 0.00 0.00 97 1022.1
20260507110301 7 136 1.6 3.2 0.00 0.00 0.00 97 1021.9
20260507105758 7 128 1.6 1.6 0.00 0.00 0.00 97 1021.8
20260507105254 7 122 1.6 3.2 0.00 0.00 0.00 97 1022.0
20260507104751 7 109 0.0 0.0 0.00 0.00 0.00 97 1022.1
20260507104248 7 130 0.0 1.6 0.00 0.00 0.00 97 1022.0
20260507103744 7 114 0.0 1.6 0.00 0.00 0.00 97 1021.8
20260507103240 7 127 1.6 1.6 0.00 0.00 0.00 97 1021.7
20260507102737 7 115 0.0 1.6 0.00 0.00 0.00 97 1021.9
20260507102233 7 148 3.2 3.2 0.00 0.00 0.00 97 1021.7
20260507101729 7 114 1.6 1.6 0.00 0.00 0.00 97 1021.7
20260507101225 7 127 3.2 3.2 0.00 0.00 0.00 97 1021.5
20260507100722 6 107 0.0 0.0 0.00 0.00 0.00 97 1021.4
20260507100221 6 96 0.0 0.0 0.00 0.00 0.00 97 1021.5
20260507095718 6 95 0.0 0.0 0.00 0.00 0.00 96 1021.4
20260507095214 6 95 0.0 0.0 0.00 0.00 0.00 96 1021.3
20260507094711 6 94 0.0 0.0 0.00 0.00 0.00 96 1021.4
20260507094208 7 131 1.6 1.6 0.00 0.00 0.00 96 1021.4
20260507093705 7 153 1.6 1.6 0.00 0.00 0.00 96 1021.2
20260507093204 7 119 0.0 1.6 0.00 0.00 0.00 96 1021.3
20260507092700 6 89 1.6 1.6 0.00 0.00 0.00 96 1021.2
20260507092151 6 87 0.0 0.0 0.00 0.00 0.00 96 1021.1
20260507091648 6 71 0.0 1.6 0.00 0.00 0.00 96 1021.2
20260507091144 7 117 0.0 0.0 0.00 0.00 0.00 96 1021.1
20260507090639 7 119 1.6 1.6 0.00 0.00 0.00 96 1020.9
20260507090137 7 107 0.0 0.0 0.00 0.00 0.00 96 1020.7
20260507085633 7 121 0.0 0.0 0.00 0.00 0.00 96 1020.6
20260507085130 7 122 0.0 0.0 0.00 0.00 0.00 96 1020.7
20260507084627 7 110 1.6 1.6 0.00 0.00 0.00 96 1020.6
20260507084124 7 105 0.0 1.6 0.00 0.00 0.00 96 1020.7
20260507083620 7 105 0.0 0.0 0.00 0.00 0.00 96 1020.6
20260507083117 7 103 0.0 0.0 0.00 0.00 0.00 96 1020.3
20260507082613 7 102 0.0 1.6 0.00 0.00 0.00 96 1020.3
20260507082110 7 41 1.6 1.6 0.00 0.00 0.00 95 1020.2
20260507081606 7 119 1.6 1.6 0.00 0.00 0.00 95 1020.4
20260507081103 7 174 1.6 3.2 0.00 0.00 0.00 95 1020.2
20260507080559 8 134 1.6 3.2 0.00 0.00 0.00 95 1020.4
20260507080055 8 256 3.2 3.2 0.00 0.00 0.00 95 1020.5
20260507075550 8 133 1.6 1.6 0.00 0.00 0.00 95 1020.4
20260507075047 8 103 0.0 1.6 0.00 0.00 0.00 95 1020.5
20260507074544 8 89 0.0 0.0 0.00 0.00 0.00 95 1020.6
20260507074043 8 74 0.0 1.6 0.00 0.00 0.00 95 1020.3
20260507073538 8 66 0.0 0.0 0.00 0.00 0.00 95 1020.3
20260507073035 8 53 1.6 1.6 0.00 0.00 0.00 95 1020.5
20260507072533 8 135 1.6 1.6 0.00 0.00 0.00 95 1020.6
20260507072030 8 105 0.0 1.6 0.00 0.00 0.00 95 1020.8
20260507071527 8 115 1.6 1.6 0.00 0.00 0.00 95 1020.7
20260507071024 8 119 0.0 1.6 0.00 0.00 0.00 95 1020.8
20260507070521 8 117 0.0 0.0 0.00 0.00 0.00 95 1020.7
20260507070018 8 110 0.0 0.0 0.00 0.00 0.00 95 1020.8
20260507065514 8 108 0.0 0.0 0.00 0.00 0.00 95 1020.9
20260507065011 8 121 1.6 1.6 0.00 0.00 0.00 95 1020.8
20260507064509 8 127 0.0 1.6 0.00 0.00 0.00 95 1020.6
20260507064007 8 123 0.0 0.0 0.00 0.00 0.00 95 1020.5
20260507063504 8 123 0.0 0.0 0.00 0.00 0.00 95 1020.3
20260507063001 8 118 0.0 0.0 0.00 0.00 0.00 94 1020.5
20260507062458 8 118 0.0 0.0 0.00 0.00 0.00 94 1020.3
20260507061955 8 122 0.0 0.0 0.00 0.00 0.00 94 1020.2
20260507061453 8 122 0.0 0.0 0.00 0.00 0.00 94 1020.4
20260507060951 8 118 0.0 0.0 0.00 0.00 0.00 94 1020.3
20260507060448 8 119 0.0 1.6 0.00 0.00 0.00 94 1020.3
20260507055944 9 114 0.0 0.0 0.00 0.00 0.00 94 1020.5
20260507055440 9 121 3.2 3.2 0.00 0.00 0.00 94 1020.3
20260507054937 9 105 1.6 3.2 0.00 0.00 0.00 95 1020.1
20260507054433 9 64 1.6 1.6 0.00 0.00 0.00 95 1020.0
20260507053930 9 67 0.0 0.0 0.00 0.00 0.00 95 1019.9
20260507053428 8 81 0.0 1.6 0.00 0.00 0.00 95 1020.0
20260507052926 8 123 0.0 0.0 0.00 0.00 0.00 95 1019.9
20260507052423 8 123 0.0 0.0 0.00 0.00 0.00 95 1020.2
20260507051920 8 123 0.0 0.0 0.00 0.00 0.00 95 1019.9
20260507051418 8 123 0.0 0.0 0.00 0.00 0.00 95 1020.0
20260507050915 8 123 1.6 1.6 0.00 0.00 0.00 95 1020.1
20260507050411 8 123 0.0 0.0 0.00 0.00 0.00 94 1019.8
20260507045908 8 123 0.0 0.0 0.00 0.00 0.00 94 1020.2
20260507045405 8 123 0.0 0.0 0.00 0.00 0.00 94 1020.1
20260507044902 8 124 0.0 0.0 0.00 0.00 0.00 94 1020.1
20260507044358 8 124 0.0 0.0 0.00 0.00 0.00 94 1020.2
20260507043854 8 123 0.0 0.0 0.00 0.00 0.00 94 1020.2
20260507043351 8 123 0.0 0.0 0.00 0.00 0.00 94 1020.2
20260507042847 8 123 0.0 0.0 0.00 0.00 0.00 93 1020.1
20260507042343 9 123 0.0 1.6 0.00 0.00 0.00 93 1020.1
20260507041840 9 123 0.0 1.6 0.00 0.00 0.00 93 1020.1
20260507041337 10 124 0.0 0.0 0.00 0.00 0.00 93 1020.0
20260507040834 10 124 0.0 0.0 0.00 0.00 0.00 93 1020.1
20260507040330 10 124 0.0 1.6 0.00 0.00 0.00 92 1020.1
20260507035826 10 124 0.0 0.0 0.00 0.00 0.00 93 1019.9
20260507035321 10 124 0.0 0.0 0.00 0.00 0.00 93 1019.8
20260507034820 10 124 0.0 0.0 0.00 0.00 0.00 93 1019.9
20260507034316 10 123 0.0 0.0 0.00 0.00 0.00 93 1019.8
20260507033814 9 122 0.0 0.0 0.00 0.00 0.00 93 1019.9
20260507033312 10 122 0.0 0.0 0.00 0.00 0.00 93 1019.7
20260507032809 10 122 0.0 0.0 0.00 0.00 0.00 93 1019.7
20260507032306 10 122 0.0 0.0 0.00 0.00 0.00 93 1019.9
20260507031801 10 123 0.0 0.0 0.00 0.00 0.00 93 1019.9
20260507031258 10 122 0.0 0.0 0.00 0.00 0.00 92 1019.6
20260507030755 10 122 0.0 0.0 0.00 0.00 0.00 92 1019.8
20260507030252 10 122 1.6 1.6 0.00 0.00 0.00 92 1019.8
20260507025749 10 121 0.0 0.0 0.00 0.00 0.00 92 1019.5
20260507025246 10 121 0.0 0.0 0.00 0.00 0.00 92 1019.6
20260507024745 10 118 0.0 1.6 0.00 0.00 0.00 93 1019.4
20260507024241 10 114 0.0 0.0 0.00 0.00 0.00 93 1019.3
20260507023737 10 113 0.0 0.0 0.00 0.00 0.00 93 1019.2
20260507023234 10 108 0.0 0.0 0.00 0.00 0.00 94 1019.4
20260507022731 10 108 0.0 0.0 0.00 0.00 0.00 93 1019.1
20260507022227 10 108 0.0 0.0 0.00 0.00 0.00 93 1019.2
20260507021724 10 108 0.0 0.0 0.00 0.00 0.00 93 1019.2
20260507021219 10 108 0.0 0.0 0.00 0.00 0.00 93 1018.9
20260507020718 10 108 0.0 0.0 0.00 0.00 0.00 93 1018.9
20260507020214 10 108 0.0 0.0 0.00 0.00 0.00 93 1018.8
20260507015712 10 110 0.0 0.0 0.00 0.53 0.53 92 1018.8
20260507015209 10 110 0.0 1.6 0.00 0.53 0.53 92 1019.0
20260507014705 10 93 0.0 0.0 0.00 0.53 0.53 92 1018.8
20260507014201 10 112 1.6 1.6 0.00 0.53 0.53 92 1018.9
20260507013658 10 111 0.0 0.0 0.00 0.53 0.53 92 1018.7
20260507013156 10 90 0.0 0.0 0.00 0.53 0.53 91 1018.6
20260507012653 11 106 0.0 0.0 0.00 0.53 0.53 91 1018.8
20260507012148 11 108 1.6 1.6 0.00 0.53 0.53 91 1018.7
20260507011647 11 79 0.0 0.0 0.00 0.53 0.53 91 1018.9
20260507011142 11 96 0.0 0.0 0.00 0.53 0.53 91 1018.9
20260507010637 11 107 0.0 0.0 0.00 0.53 0.53 91 1018.9
20260507010133 11 115 0.0 0.0 0.00 0.53 0.53 90 1018.8
20260507005631 11 113 0.0 1.6 0.00 0.53 0.53 90 1019.0
20260507005122 11 105 0.0 0.0 0.00 0.53 0.53 90 1018.9
20260507004619 11 116 1.6 1.6 0.00 0.53 0.53 89 1018.8
20260507004116 11 77 0.0 0.0 0.00 0.53 0.53 89 1019.2
20260507003612 11 110 0.0 0.0 0.00 0.53 0.53 89 1018.8
20260507003107 11 123 1.6 3.2 0.00 0.53 0.53 89 1018.8
20260507002604 11 134 1.6 3.2 0.00 0.53 0.53 90 1018.8
20260507002059 12 96 0.0 0.0 0.00 0.53 0.53 90 1018.6
20260507001557 12 73 0.0 1.6 0.00 0.53 0.53 90 1018.8
20260507001054 12 142 3.2 3.2 0.00 0.53 0.53 90 1018.6
20260507000550 12 106 0.0 0.0 0.00 0.53 0.53 88 1018.8
20260507000046 12 100 0.0 0.0 0.00 0.53 0.53 88 1018.6
20260506235544 12 110 1.6 1.6 0.00 0.53 0.53 88 1018.5
20260506235039 12 117 1.6 1.6 0.00 0.53 0.53 88 1018.4
20260506234537 12 148 6.4 6.4 0.00 0.53 0.53 88 1018.2
20260506234033 12 130 6.4 6.4 0.00 0.53 0.53 90 1018.4
20260506233530 12 99 0.0 0.0 0.00 0.53 0.53 89 1018.3
20260506233021 12 96 0.0 1.6 0.00 0.53 0.53 89 1018.5
20260506232517 12 59 1.6 1.6 0.00 0.53 0.53 89 1018.3
20260506232013 12 34 1.6 3.2 0.00 0.53 0.53 89 1018.1
20260506231511 12 60 0.0 1.6 0.00 0.53 0.53 89 1018.1
20260506231009 12 74 0.0 0.0 0.00 0.53 0.53 88 1017.9
20260506230504 12 82 0.0 0.0 0.00 0.53 0.53 88 1017.8
20260506230001 12 125 1.6 3.2 0.00 0.53 0.53 88 1017.9
20260506225458 12 111 3.2 4.8 0.00 0.53 0.53 87 1017.9
20260506224954 12 356 1.6 3.2 0.00 0.53 0.53 87 1018.1
20260506224451 13 103 1.6 3.2 0.00 0.53 0.53 87 1017.6
20260506223948 13 201 8.0 9.7 0.00 0.53 0.53 87 1017.9
20260506223444 13 140 1.6 3.2 0.00 0.53 0.53 88 1017.7
20260506222941 13 39 4.8 4.8 0.00 0.53 0.53 88 1017.6
20260506222438 13 152 3.2 4.8 0.00 0.53 0.53 88 1017.8
20260506221934 13 262 6.4 6.4 0.00 0.53 0.53 89 1017.6
20260506221431 13 142 4.8 6.4 0.00 0.53 0.53 89 1017.4
20260506220930 13 156 1.6 3.2 0.00 0.53 0.53 89 1017.5
20260506220425 13 93 1.6 1.6 0.00 0.53 0.53 88 1017.6
20260506215921 13 154 3.2 6.4 0.00 0.53 0.53 88 1017.7
20260506215418 13 66 1.6 3.2 0.00 0.53 0.53 88 1017.5
20260506214913 13 111 0.0 0.0 0.00 0.53 0.53 87 1017.1
20260506214411 13 122 3.2 3.2 0.00 0.53 0.53 87 1017.2
20260506213908 13 212 4.8 6.4 0.00 0.53 0.53 87 1017.1
20260506213406 13 43 1.6 1.6 0.00 0.53 0.53 87 1016.9
20260506212903 13 194 3.2 4.8 0.00 0.53 0.53 86 1016.9
20260506212359 13 219 4.8 4.8 0.00 0.53 0.53 86 1016.7
20260506211853 13 135 1.6 1.6 0.00 0.53 0.53 86 1016.9
20260506211350 13 214 4.8 4.8 0.00 0.53 0.53 86 1016.7
20260506210842 13 223 9.7 12.9 0.00 0.53 0.53 86 1016.8
20260506210339 14 226 6.4 11.3 0.00 0.53 0.53 86 1016.8
20260506205836 14 319 6.4 6.4 0.00 0.53 0.53 86 1016.7
20260506205331 14 106 1.6 1.6 0.00 0.53 0.53 87 1016.8
20260506204823 14 48 3.2 3.2 0.00 0.53 0.53 87 1016.9
20260506204320 14 151 1.6 1.6 0.00 0.53 0.53 87 1016.8
20260506203818 14 206 4.8 6.4 0.00 0.53 0.53 87 1016.8
20260506203315 14 243 6.4 9.7 0.00 0.53 0.53 87 1016.6
20260506202812 14 163 3.2 4.8 0.00 0.53 0.53 88 1016.6
20260506202309 14 121 1.6 1.6 0.00 0.53 0.53 89 1016.4
20260506201805 14 214 4.8 4.8 0.00 0.53 0.53 89 1016.6
20260506201302 14 232 3.2 6.4 0.00 0.53 0.53 89 1016.8
20260506200759 13 261 8.0 12.9 0.00 0.53 0.53 90 1016.7
20260506200255 13 233 3.2 4.8 0.00 0.53 0.53 91 1016.4
20260506195752 14 184 11.3 16.1 0.00 0.53 0.53 92 1016.6
20260506195249 14 228 6.4 9.7 0.00 0.53 0.53 91 1016.4
20260506194746 14 170 9.7 14.5 0.00 0.53 0.53 90 1016.6
20260506194242 15 205 8.0 11.3 0.00 0.53 0.53 91 1016.2
20260506193740 14 203 3.2 4.8 0.00 0.53 0.53 92 1016.5
20260506193236 15 280 6.4 6.4 0.00 0.53 0.53 92 1016.4
20260506192733 15 61 0.0 0.0 0.00 0.53 0.53 92 1016.2
20260506192230 15 54 3.2 4.8 0.00 0.53 0.53 92 1016.1
20260506191727 14 307 3.2 4.8 0.00 0.53 0.53 92 1016.1
20260506191223 14 104 3.2 3.2 0.00 0.53 0.53 96 1015.9
20260506190720 14 152 3.2 3.2 0.00 0.53 0.53 98 1015.9
20260506190217 14 213 8.0 12.9 0.00 0.53 0.53 99 1015.9
20260506185715 13 227 4.8 6.4 0.00 0.53 0.53 99 1015.6
20260506185210 14 68 3.2 6.4 0.00 0.53 0.53 99 1015.7
20260506184708 14 225 1.6 3.2 0.00 0.53 0.53 99 1015.7
20260506184205 13 260 6.4 9.7 0.00 0.53 0.53 99 1015.4
20260506183701 13 266 6.4 9.7 0.00 0.53 0.53 99 1015.4
20260506183157 14 330 1.6 1.6 0.00 0.53 0.53 99 1015.0
20260506182655 14 290 3.2 6.4 0.00 0.53 0.53 99 1015.3
20260506182151 14 297 3.2 3.2 0.00 0.53 0.53 99 1015.0
20260506181644 14 86 1.6 1.6 0.00 0.53 0.53 99 1015.1
20260506181141 13 43 4.8 4.8 0.00 0.53 0.53 99 1015.3
20260506180638 14 320 4.8 12.9 0.00 0.53 0.53 99 1015.1
20260506180134 14 16 4.8 4.8 0.00 0.53 0.53 99 1015.0
20260506175630 15 261 6.4 9.7 0.00 0.53 0.53 99 1015.3
20260506175125 15 328 8.0 11.3 0.13 0.53 0.53 99 1014.9
20260506174620 14 345 6.4 9.7 0.13 0.53 0.53 99 1015.0
20260506174116 14 308 8.0 11.3 0.00 0.51 0.51 99 1014.9
20260506173614 14 333 16.1 22.5 0.00 0.51 0.51 99 1015.0
20260506173110 15 313 3.2 4.8 0.00 0.51 0.51 99 1015.1
20260506172608 14 344 9.7 14.5 0.00 0.51 0.51 99 1014.7
20260506172103 14 342 11.3 14.5 0.00 0.51 0.51 99 1015.0
20260506171601 14 333 9.7 12.9 0.18 0.51 0.51 99 1014.9
20260506171059 14 341 16.1 20.9 0.30 0.51 0.51 99 1014.8
20260506170555 13 38 14.5 20.9 0.13 0.48 0.48 99 1014.7